Montana Department of Transportation

Main Content

Accidents and Incidents Report

Hourly Weather Roundup

ASUS45 KTFX 201910

RWRMT 

Montana Regional Weather Roundup

National Weather Service Great Falls MT

100 PM MDT TUE AUG 20 2019



NOTE: "FAIR" indicates few or no clouds below 12,000 feet with no

significant weather and/or obstructions to visibility.



MTZ001.007-043-202000-

West of the divide

  

CITY           SKY/WX    TMP DP  RH WIND       PRES   REMARKS

Kalispell      FAIR      79  46  31 VRB3      30.06F                  

Missoula       FAIR      79  44  28 VRB5      30.06F                  

Butte          FAIR      82  39  21 N7        30.19F                  

Hamilton       FAIR      77  48  36 N5        30.07F                  

Mullan Pass    FAIR      71  41  33 VRB5      30.22S                  

Ronan            N/A     77  50  38 NW3       30.07S                  

--------------------------------



MTZ008-052.055-202000-

Southwest Montana

  

CITY           SKY/WX    TMP DP  RH WIND       PRES   REMARKS

Bozeman        FAIR      84  48  28 VRB7      30.13F                  

Dillon         FAIR      77  46  33 NW3       30.16F                  

Ennis          FAIR      82  43  24 VRB7      30.21F                  

Three Forks      N/A     79  47  32 CALM      30.11                   

W Yellowstone  FAIR      75  36  23 VRB3      30.26F                  

--------------------------------



MTZ009-010-012-014-046-048-049-054-202000-

East Slopes and Central Montana

  

CITY           SKY/WX    TMP DP  RH WIND       PRES   REMARKS

Cut Bank       FAIR      70  47  43 S8        30.16S                  

Great Falls    FAIR      73  51  46 VRB3      30.14F                  

Helena           N/A     78  46  32 CALM      30.10F                  

Augusta        FAIR      69  50  50 CALM      30.16F                  

Bowmans Corner   N/A     69  47  44 N7        30.14F                  

Choteau          N/A     70  50  49 VRB3      30.15F                  

Fairfield      FAIR      71  48  43 SE5       30.14F                  

Power          FAIR      71  48  43 SE3       30.13F                  

Raynesford     FAIR      72  51  47 E12G17    30.15F                  

Ulm            FAIR      73  49  42 CALM      30.14F                  

White Sulphur    N/A     77  46  33 VRB5      30.16F                  

--------------------------------



MTZ011-013-016-021-045-047-050-051-202000-

North Central Montana

  

CITY           SKY/WX    TMP DP  RH WIND       PRES   REMARKS

Havre          FAIR      77  47  34 E18G28    30.13F                  

Lewistown      FAIR      73  52  47 E17       30.18F                  

Denton         FAIR      75  50  41 NE13      30.12F                  

Geyser         FAIR      73  51  46 E10       30.16F                  

Grass Range    FAIR      70  51  50 E10       30.17F                  

Judith Gap     FAIR      75  49  40 S17       30.18F                  

N Bar Ranch    FAIR      68  50  52 E10       30.24F                  

Roy              N/A     72  50  45 SE16G23   30.18F                  

Stanford       FAIR      75  52  45 E8        30.17F                  

Winifred       FAIR      73  48  41 E18G26    30.16F                  

--------------------------------



MTZ017.020-022.027-061-062-202000-

Northeast Montana

  

CITY           SKY/WX    TMP DP  RH WIND       PRES   REMARKS

Glasgow        FAIR      74  40  29 E14       30.18F                  

Circle           N/A     73  45  35 E15G21    30.18                   

Culbertson       N/A     72  45  37 E9G15     30.18F                  

Glendive       FAIR      70  49  47 NE9       30.20S                  

Jordan           N/A     75  46  35 E14G23    30.18                   

Malta          SUNNY     73  45  35 E9G16     30.16F                  

Scobey           N/A     71  43  36 CALM      30.21S                  

Sidney         FAIR      70  47  43 NE12      30.19F                  

Wolf Point     FAIR      72  45  37 E13       30.19F                  

--------------------------------



MTZ028.42-056.058-202000-

Southcentral and southeast Montana

  

CITY           SKY/WX    TMP DP  RH WIND       PRES   REMARKS

Baker          FAIR      75  50  41 E14       30.19F                  

Big Timber     SUNNY     77  48  36 VRB6      30.18F                  

Billings       FAIR      81  52  36 NE14      30.14F                  

Laurel           N/A     77  52  41 NE10G16   30.14F                  

Livingston     FAIR      82  45  27 E16       30.15F                  

Miles City     FAIR      77  50  38 NE17G24   30.15F                  

--------------------------------



Regional Reports...Dakotas/MN

  

CITY           SKY/WX    TMP DP  RH WIND       PRES   REMARKS

Williston      FAIR      72  46  39 MISG      30.20F                  

Minot          FAIR      71  46  40 N10       30.15S                  

Dickinson      FAIR      74  49  41 NE12G20   30.17S                  

Beach          FAIR      72  50  46 NE9       30.21S                  

Crosby         FAIR      68  41  37 VRB3      30.20S                  

Hettinger      FAIR      73  54  51 NE15G22   30.18S                  

Tioga          FAIR      66  45  45 NE8       30.22R                  

Watford City   FAIR      72  46  40 NE8       30.19S                  

Bismarck       FAIR      73  51  46 NE12      30.14S                  

Grand Forks    FAIR      74  50  42 N16G24    30.07R                  

Fargo          FAIR      73  61  65 N16       30.05R                  

Buffalo SD       N/A     78  51  38 E12G24    30.15R                  

Rapid City     FAIR      80  57  45 NE8       30.16R                  

Intl Falls     FAIR      70  57  63 N13       29.99R                  

Duluth         FAIR      79  61  53 SW14G20   29.93F                  

Minneapolis    FAIR      77  66  68 S10       29.95F                  

--------------------------------



Regional Reports...WY/ID/WA

  

CITY           SKY/WX    TMP DP  RH WIND       PRES   REMARKS

Buffalo WY     FAIR      82  50  32 SE8G22    30.19F                  

Cody           FAIR      78  49  35 NE10      30.19F                  

Gillette       FAIR      86  51  29 E8        30.14F                  

Powell         FAIR      77  34  20 NW9       30.18                   

Sheridan       FAIR      87  48  25 SE12      30.12S                  

Yellowstone La   N/A     70  32  24 SE6       30.38F                  

Boise          FAIR      88  45  22 VRB6      29.97F                  

Couer d'Alene  FAIR      83  51  33 VRB5      30.01F                  

Idaho Falls    FAIR      85  36  17 N3        30.12F                  

Salmon         FAIR      80  46  30 NW3       30.08F                  

Spokane        FAIR      80  49  33 VRB3      30.00F                  

Seattle        PTSUNNY   73  55  53 S7        29.95F                  

--------------------------------



Regional Reports...Alberta

  

CITY           SKY/WX    TMP DP  RH WIND       PRES   REMARKS

Calgary        MOSUNNY   72  50  46 SE14G23   30.11F                  

Cardston         N/A     77  50  38 SE9G17      N/A                   

Crowsnest Pass   N/A     77  46  33 NW1         N/A                   

Edmonton       MOSUNNY   70  52  52 SE12G17   30.10F                  

Fort McMurray  CLOUDY    61  41  48 VRB2      30.17F                  

High Level     CLOUDY    57  46  67 SE14      30.04F                  

Lethbridge     MOSUNNY   77  48  36 SE10G18   30.11F                  

Lloydminster   PTSUNNY   64  52  63 VRB2      30.19F                  

Medicine Hat   CLOUDY    77  45  31 E10G35    30.13F                  

Milk River       N/A     75  48  38 SE12G17     N/A                   

Onefour          N/A     72  43  35 E17G26      N/A                   

Peace River    PTSUNNY   66  54  63 SE8       30.01F                  

Pincher Creek  SUNNY     70  50  49 E3        30.13F                  

Raymond          N/A     77  46  33 S12         N/A                   

Waterton Gate    N/A     73  52  46 N5          N/A                   

Fort Smith NWT PTSUNNY   55  46  71 VRB2      30.17S                  

--------------------------------



Regional Reports...Saskatchewan

  

CITY           SKY/WX    TMP DP  RH WIND       PRES   REMARKS

Assiniboia       N/A     68  41  37 N6          N/A                   

Coronach         N/A     68  45  42 W3          N/A                   

Cypress Hills    N/A     66  43  42 SE9G17      N/A                   

Estevan        SUNNY     70  45  40 N9G18     30.18S                  

Moose Jaw        N/A     68  41  37 N6          N/A                   

Prince Albert  MOSUNNY   63  45  51 NW16G22   30.19F                  

Regina         PTSUNNY   66  45  45 NW10G18   30.20F                  

Rockglen         N/A     66  43  42 N5          N/A                   

Saskatoon      MOSUNNY   70  45  40 W10       30.18F                  

Swift Current  SUNNY     66  43  42 E6        30.22R                  

Val Marie        N/A     70  41  35 E8          N/A                   

--------------------------------